Wind_Speed
16 12 22 21 18 9 14 17 12 14 17 14 10 19 25 18 18 19 15 11 13 23 25 36 40 42 38 35 41 42 34 37 33 31 29 24 23 17 17 14 8 20 15 12
13 25 15 15 17 18 19 20 17 15 18 12 19 23 21 23 13 19 21 14 16 21 19 23 32 37 39 38 42 38 37 36 37 34 32 28 24 21 19 18 14 17 16 14
21 9 19 21 19 21 19 19 19 14 13 10 16 9 14 8 7 13 15 20 22 25 23 20 24 32 36 37 42 43 38 35 39 36 32 27 21 22 23 23 21 18 20 13
23 20 21 24 22 21 18 21 21 21 11 5 11 8 12 17 17 16 22 24 21 24 24 21 23 29 35 37 42 44 42 38 37 36 33 31 27 22 23 28 24 21 22 19
25 24 25 22 24 19 18 11 19 21 15 9 7 6 11 25 23 21 27 27 25 23 27 26 26 37 37 39 40 43 45 41 37 37 36 33 31 28 25 20 26 24 24 24
19 16 20 24 21 21 16 15 17 18 14 13 9 11 7 22 24 25 29 29 30 28 28 27 37 36 36 37 38 40 43 41 41 40 36 38 34 31 25 25 24 26 26 27
20 25 26 25 20 18 19 12 7 9 9 11 10 6 8 10 11 30 34 34 33 31 28 27 26 26 33 37 38 39 42 40 41 44 44 35 38 35 33 29 24 25 26 28
21 22 27 21 22 19 19 20 7 11 6 10 8 8 8 11 2 14 30 37 32 31 28 28 28 32 37 39 41 41 43 42 43 43 45 46 38 33 36 31 32 26 25 29
12 28 11 27 18 22 12 19 11 4 6 2 5 8 12 18 10 8 11 29 31 30 30 29 29 34 39 38 42 43 43 44 45 45 42 41 44 39 33 39 32 26 27 24
13 22 23 20 24 22 19 11 13 9 9 11 9 9 14 13 17 10 12 20 25 28 29 27 27 31 40 43 44 46 43 43 44 43 39 40 42 45 39 33 37 36 27 25
20 6 26 18 23 27 12 12 15 6 5 6 5 11 11 17 21 18 16 12 21 19 27 26 25 35 41 43 39 42 42 41 39 39 41 37 36 38 40 35 34 38 36 29
18 8 7 28 20 15 18 19 11 11 13 4 4 10 5 10 26 22 14 13 15 19 27 26 26 30 35 37 38 39 40 42 43 43 36 37 33 32 34 36 36 33 37 39
15 6 6 12 12 20 21 22 20 6 6 10 8 11 4 11 18 21 12 11 13 14 23 26 25 24 26 34 38 38 41 41 41 38 38 34 37 36 33 35 39 39 36 39
20 12 15 11 13 6 8 20 22 17 8 8 12 6 9 7 9 8 9 10 9 10 21 24 23 25 26 35 38 38 39 40 38 40 39 38 37 37 36 35 38 41 40 40
12 13 14 20 21 15 15 21 22 20 18 13 9 8 9 5 8 9 8 8 9 10 14 19 24 23 23 31 36 40 41 42 42 39 40 40 39 37 37 38 36 37 41 40
18 10 17 11 11 11 11 15 29 21 21 14 10 11 9 8 8 10 10 11 11 11 10 10 8 18 23 28 34 39 40 41 41 40 40 40 38 39 40 38 38 36 37 42
19 12 10 5 6 5 6 11 8 19 19 20 15 9 6 8 11 11 12 10 10 10 9 10 8 8 16 26 30 29 34 39 39 40 40 38 39 39 39 39 37 38 38 36
19 19 4 5 5 2 6 8 10 9 11 5 9 5 16 10 8 9 7 11 10 9 10 9 9 8 7 22 31 34 34 33 37 36 35 39 37 38 38 37 38 39 38 38
16 15 5 3 3 5 7 12 10 4 13 23 18 15 16 19 23 16 14 15 13 11 9 8 15 18 23 24 10 26 31 32 32 33 33 36 38 38 37 39 38 38 36 35
15 12 3 4 3 2 18 28 30 15 9 19 20 22 11 22 12 5 10 13 14 14 13 13 20 20 19 18 19 3 22 32 33 34 36 38 40 39 39 38 38 37 37 36
11 5 7 6 3 5 16 24 17 8 5 12 16 17 17 17 7 7 12 14 15 16 18 26 23 18 20 15 14 12 6 1 16 26 37 36 35 38 37 36 35 35 33 31
7 5 2 4 2 3 16 13 12 5 4 7 9 12 13 13 15 14 13 16 14 14 16 26 23 23 24 23 13 13 7 6 6 9 21 27 34 34 34 36 32 32 30 29
5 4 4 2 4 12 18 5 17 12 11 9 7 8 8 9 10 10 10 11 11 10 13 20 21 24 29 31 24 8 15 12 10 12 23 32 33 33 32 31 29 27 28 28
13 3 4 10 10 17 21 9 17 17 19 19 7 7 8 7 8 8 8 8 8 10 10 17 20 20 22 28 32 34 26 15 8 13 16 25 30 31 32 30 28 27 26 25
7 8 13 11 13 22 14 18 18 21 20 20 22 11 6 7 4 5 5 6 7 8 14 18 16 19 21 26 25 31 16 14 10 12 13 21 27 29 26 25 21 25 26 29
10 11 5 12 22 18 26 26 24 22 21 22 18 17 13 7 5 7 3 2 4 10 17 14 18 20 26 25 24 23 22 18 16 18 18 19 23 25 25 27 14 13 21 23
Wind_Direction
215 218 220 217 233 230 242 244 224 240 225 221 188 153 174 201 193 184 185 210 235 193 194 195 196 191 193 188 172 179 179 184 183 184 188 199 212 221 222 215 228 196 193 185
210 231 220 213 224 236 237 247 258 235 247 196 136 162 187 173 175 185 202 199 236 188 190 180 174 176 175 178 180 180 184 184 187 187 191 196 205 212 215 217 224 199 186 186
212 223 222 210 220 226 235 241 247 252 254 135 134 143 166 194 266 260 180 207 209 185 189 181 179 175 175 172 180 184 186 189 190 191 193 197 203 214 215 215 217 211 199 209
226 231 209 224 219 224 220 237 248 258 262 181 171 160 199 176 210 212 212 200 217 187 187 184 185 180 179 179 180 186 187 191 194 191 191 195 203 208 212 214 214 219 212 211
222 207 230 217 225 220 235 226 242 254 263 268 218 207 202 197 210 199 214 199 208 206 186 185 187 185 184 179 179 185 189 193 194 193 196 198 206 213 217 212 215 217 220 221
235 238 222 234 218 226 225 227 242 245 244 249 240 197 201 199 209 199 206 201 202 203 187 188 188 184 181 179 178 181 185 190 198 197 201 206 210 213 212 218 220 217 218 219
248 228 232 226 232 218 213 219 230 238 228 233 239 212 213 227 196 194 194 191 201 190 186 183 181 184 181 174 179 181 185 190 195 202 206 204 214 214 216 218 221 220 215 210
234 245 216 220 220 222 210 218 201 211 207 231 238 249 255 254 216 196 181 184 188 185 184 181 183 182 183 179 179 182 186 191 195 199 208 212 212 215 214 216 224 226 217 212
247 240 241 225 217 224 209 216 214 250 219 216 194 251 257 262 259 216 202 174 186 183 181 181 181 181 182 182 181 184 188 192 195 200 204 209 214 215 216 219 220 221 225 219
286 257 257 228 220 239 216 175 217 220 207 223 235 218 231 234 246 221 219 195 184 182 178 179 178 179 183 186 184 186 188 192 196 199 201 206 212 218 217 219 222 223 221 226
313 259 256 251 210 219 216 211 201 185 180 188 206 236 223 218 224 217 212 180 184 174 176 177 176 179 182 187 184 186 187 191 194 198 202 205 209 215 216 215 220 225 225 224
301 290 274 242 249 244 213 213 205 202 225 218 195 256 310 319 206 210 202 202 169 177 173 174 174 177 181 185 185 186 188 190 195 199 200 206 207 209 214 215 219 222 226 227
319 341 312 261 249 257 229 196 216 176 147 218 226 261 262 320 189 183 175 183 190 157 167 173 172 176 181 183 186 188 190 193 194 196 200 201 206 209 210 212 218 222 225 228
308 264 230 270 264 227 254 211 203 210 200 206 227 238 289 21 64 133 165 145 162 152 165 173 172 179 182 184 186 188 193 193 192 195 197 202 205 207 209 212 216 219 221 225
298 277 264 265 268 277 276 212 195 207 213 202 222 186 220 157 92 85 93 110 140 151 156 163 176 179 183 184 187 189 191 193 194 194 198 203 205 205 207 211 213 215 219 223
303 282 309 289 285 281 299 292 194 199 211 222 233 225 188 169 118 92 87 79 82 95 96 104 130 183 185 182 185 190 191 195 194 198 200 202 201 202 204 208 211 213 216 221
293 317 323 298 322 296 298 245 272 207 195 211 216 217 161 129 131 129 107 89 87 78 71 78 105 118 182 189 188 185 190 193 196 200 203 201 201 201 204 206 208 212 216 217
274 290 278 280 10 197 256 339 316 236 202 222 231 173 165 143 81 70 82 110 84 68 50 42 52 40 39 171 188 188 188 186 195 202 200 204 201 202 204 205 207 211 215 216
255 269 292 293 337 313 287 1 349 324 45 14 15 355 154 103 72 40 42 60 67 65 52 50 54 50 38 36 37 187 189 193 191 197 200 198 200 200 201 205 207 210 214 217
211 256 296 339 293 209 356 345 335 318 58 12 19 26 37 94 77 32 29 43 47 44 39 26 22 26 30 25 20 174 187 189 200 205 201 206 203 200 202 205 206 209 213 217
189 201 252 259 295 3 343 336 355 55 26 12 12 20 40 66 75 41 34 35 43 38 27 17 13 12 1 5 359 17 30 182 219 208 213 211 209 205 204 204 205 207 210 214
18 292 171 273 32 314 344 0 38 347 67 49 3 20 27 39 41 34 31 24 28 35 22 17 6 350 338 342 338 332 313 309 299 273 228 220 218 211 206 203 202 204 206 212
51 36 339 318 295 305 337 334 321 355 2 358 25 16 20 33 33 25 20 23 15 14 25 19 5 350 345 351 347 285 282 292 297 273 236 222 221 219 209 206 199 198 203 210
348 27 37 340 329 353 326 313 352 335 348 335 347 354 2 21 38 26 26 15 7 5 359 19 4 349 338 336 336 331 298 279 226 234 246 225 214 213 214 211 203 201 205 212
31 14 336 303 320 342 296 315 327 325 331 331 337 323 321 335 358 66 35 15 353 351 353 10 356 334 325 325 329 339 324 295 271 257 259 237 216 208 198 197 203 209 212 216
13 355 322 295 303 288 277 291 301 307 309 313 318 321 326 339 341 54 34 346 3 346 344 352 351 326 315 315 314 319 328 334 333 267 259 241 208 198 182 183 168 203 218 223
Height
709 728 724 720 716 718 719 721 724 706 692 708 717 743 748 752 750 740 748 763 765 759 761 768 774 779 786 788 791 796 800 805 812 817 822 827 829 832 834 836 837 840 842 845
718 716 704 704 707 714 715 723 723 702 687 697 723 745 740 736 743 740 741 751 754 749 753 758 764 771 776 781 786 791 796 801 807 812 817 822 827 830 832 834 836 838 840 843
710 696 694 699 708 714 715 721 717 717 693 691 719 750 750 749 754 752 740 732 735 737 744 750 756 762 768 774 780 786 792 796 802 807 814 820 825 827 829 831 833 835 837 839
697 686 692 699 703 704 725 697 700 702 712 740 697 763 760 743 744 748 746 733 735 732 736 743 749 755 760 766 774 781 787 793 798 804 808 812 815 818 821 825 828 832 834 837
687 687 692 698 693 689 704 693 698 699 713 715 713 730 738 726 726 733 731 725 726 723 724 731 739 742 751 759 767 775 782 788 794 799 803 807 811 814 818 821 825 827 830 833
678 665 673 679 675 678 680 695 699 698 710 740 720 720 726 721 711 705 716 714 713 713 714 722 729 739 746 756 763 769 776 782 788 794 797 801 805 809 813 816 820 823 826 829
685 672 663 661 682 674 682 707 744 748 740 741 711 719 714 678 672 675 685 693 703 699 705 713 723 731 739 746 756 763 769 776 781 786 791 795 800 805 808 812 815 818 820 823
701 702 662 652 666 684 684 693 729 760 751 733 706 725 702 663 648 647 658 668 677 686 692 700 710 718 728 736 745 753 760 767 773 779 784 790 795 799 803 807 811 813 816 819
694 684 647 646 647 658 681 692 682 715 707 729 714 697 674 657 659 655 654 658 666 673 679 688 699 709 718 727 735 743 751 757 763 769 776 782 788 793 797 801 806 810 812 815
689 692 655 640 642 640 654 662 704 698 745 746 718 711 697 676 664 661 657 654 653 658 669 679 690 700 710 717 723 733 741 749 756 763 770 775 780 786 791 796 800 803 807 810
715 693 660 651 645 653 661 671 670 690 711 741 744 704 656 659 647 650 645 648 645 651 660 670 681 691 700 708 717 725 733 743 751 757 762 769 774 778 784 790 793 797 802 805
722 712 683 655 632 625 638 654 667 691 714 706 715 694 633 626 621 627 634 633 638 640 651 661 672 683 693 702 711 718 726 733 740 747 756 763 769 774 779 783 788 791 795 799
735 720 705 664 653 637 642 637 645 666 681 707 715 692 628 624 608 614 630 629 631 637 645 654 665 676 685 694 702 710 717 724 732 742 750 756 761 766 770 775 780 784 788 791
737 718 720 704 667 646 654 636 638 656 687 690 683 672 656 635 628 624 625 626 631 634 639 650 659 668 676 684 692 701 709 717 726 733 740 746 751 757 763 768 770 775 780 784
743 717 695 677 655 644 641 630 634 649 656 677 672 672 657 637 634 629 627 629 631 636 640 645 652 660 668 676 684 691 698 707 715 723 730 735 742 748 754 759 762 767 772 776
734 717 691 668 645 639 643 626 618 629 639 651 653 653 634 628 627 633 635 636 641 643 643 646 649 654 659 666 674 682 690 698 707 714 719 726 733 739 743 749 754 759 762 767
746 717 705 683 650 647 665 638 631 624 625 636 659 640 631 634 635 636 639 641 645 645 647 649 650 654 658 664 671 679 685 692 699 703 710 717 723 729 734 740 746 750 754 758
741 721 706 696 664 685 643 619 620 621 618 625 627 624 624 630 635 636 632 636 644 646 648 650 654 657 656 660 665 670 678 686 691 697 702 709 715 720 727 733 736 741 744 748
720 712 712 702 678 658 638 642 644 635 670 659 649 631 617 628 633 653 645 644 648 650 652 654 656 659 661 664 667 667 673 679 684 690 694 699 705 711 718 721 727 732 737 740
704 699 711 695 696 681 689 651 633 624 691 671 662 650 634 628 672 677 658 652 651 651 653 655 658 661 665 668 668 667 669 671 676 680 685 691 696 702 706 712 718 723 727 731
705 705 712 702 699 702 690 668 638 670 713 683 676 671 662 666 674 670 661 659 658 658 659 659 660 665 668 671 671 671 672 674 675 676 680 685 690 694 699 705 710 715 720 725
725 724 712 703 709 718 696 682 697 699 686 685 683 679 675 674 673 674 673 671 668 667 667 667 667 667 668 671 671 670 672 673 674 677 680 683 686 690 694 698 703 708 713 717
745 745 750 739 744 727 709 703 695 689 691 688 687 683 681 681 681 680 681 680 679 677 676 675 676 673 669 668 671 672 672 672 674 674 674 676 680 685 688 692 696 702 706 709
731 731 741 738 719 720 715 699 706 703 702 692 685 686 684 685 684 686 687 687 686 684 681 679 680 679 677 674 670 666 667 671 671 672 672 673 675 679 683 686 691 694 697 701
749 747 752 741 728 731 712 710 712 707 704 700 695 684 683 684 684 685 689 690 688 685 682 680 681 681 680 678 675 672 665 664 665 667 668 669 670 673 677 682 685 688 691 693
757 764 765 751 747 750 730 714 712 712 708 704 701 693 686 682 682 684 687 688 688 685 682 681 681 682 679 678 676 673 671 669 667 665 665 665 665 668 671 675 680 683 685 687